map of PTP home
PTP - Airport
Location
City:  Pointe--Pitre, Guadeloupe
Name:Le Raizet
ICAO:TFFR
IATA:PTP

Details
Type:Airport (Aerodrome, Airfield)
Use:Public/Civil
Latitude:1615'51"N (16.264167)
Longitude:6131'33"W (-61.525832)
Elevation:35 ft (11 m)
Variation:14.88W (WMM2015v2 magnetic declination)
-0.03 annual change
Runways:1
Longest:10253 × 148 ft (3125 × 45 m), paved

Time
Time Zone:UTC-4
Local Time:

Weather
METAR:TFFR 041400Z AUTO 12009KT 090V170 9999 FEW032 SCT040 27/19 Q1016 TEMPO 4000 SHRA SCT015TCU
TAF:TFFR 031600Z 0318/0418 11008KT 9999 SCT030 SCT050 PROB30
TEMPO 0318/0418 4000 SHRA SCT018TCU

Related Locations
Nearby:
Farthest:BME: 12171 mi / 19587 km
Broome [Intl], WA, AU

Find:

   beyond  
but within

Other Information
Maps:
NOTAMs:
Links:
Sources:

  
  • flag of Guadeloupe
  

Sectional Chart

Flight Planning
at skyvector.com

Satellite Image

Google Maps Satellite view

 

Copyright © 2004-2019 Karl L. Swartz. All rights reserved.
The Great Circle Mapper name and logo are trademarks of the Great Circle Mapper.
All other trademarks mentioned herein belong to their respective owners.
Please see credits for attibutions and further copyright information.

  Follow gcmap on Facebook Follow gcmap on Twitter GCmap on LinkedIn

hCard Microformat

Geo Microformat